This demonstration page uses our WeatherBlox Daily Observations layout. Learn more.

Left ArrowRight Arrow

38.88101, -77.10428

Hourly Observations for August 24, 2020

Temp ( °F °C ) Dew Point ( °F °C ) Humidity (%) Winds ( mph kmh ) Pressure ( in mb ) Visibility ( mi km ) Precip ( " mm )
12:52 am 00:52 Mostly Cloudy 80 26.7 72 22.2 76 76 SW 7 11 30.05 1018 10 16.0934 0 0
1:52 am 01:52 Partly Cloudy 79 26.1 73 22.8 82 82 S 3 6 30.05 1018 10 16.0934 0 0
2:52 am 02:52 Mostly Cloudy 78 25.6 72 22.2 82 82 SSW 5 7 30.04 1017 10 16.0934 0 0
3:52 am 03:52 Mostly Cloudy 77 25 73 22.8 88 88 SSW 5 7 30.04 1017 10 16.0934 0 0
4:52 am 04:52 Mostly Cloudy 77 25 73 22.8 88 88 SSW 8 13 30.04 1017 10 16.0934 0 0
5:52 am 05:52 Mostly Cloudy 76 24.4 72 22.2 88 88 SW 5 7 30.05 1018 10 16.0934 0 0
6:38 am 06:38 Mostly Cloudy 76 24.4 72 22.2 88 88 SW 7 11 30.06 1018 10 16.0934 0 0
6:52 am 06:52 Mostly Cloudy 76 24.4 73 22.8 91 91 SSW 5 7 30.06 1018 10 16.0934 0 0
7:52 am 07:52 Mostly Cloudy 78 25.6 73 22.8 85 85 SW 7 11 30.07 1018 10 16.0934 0 0
8:52 am 08:52 Mostly Cloudy 80 26.7 73 22.8 79 79 S 6 9 30.07 1018 10 16.0934 0 0
9:52 am 09:52 Partly Cloudy 82 27.8 74 23.3 77 77 S 8 13 30.08 1019 10 16.0934 0 0
10:52 am 10:52 Partly Cloudy 84 28.9 75 23.9 74 74 SSE 6 9 30.08 1019 10 16.0934 0 0
11:52 am 11:52 Partly Cloudy 86 30 74 23.3 67 67 SE 3 6 30.06 1018 10 16.0934 0 0
12:52 pm 12:52 Mostly Cloudy 87 30.6 71 21.7 59 59 E 3 6 30.05 1018 10 16.0934 0 0
1:21 pm 13:21 Mostly Cloudy 88 31.1 72 22.2 59 59 SE 3 6 30.04 1017 10 16.0934 0 0
1:33 pm 13:33 Mostly Cloudy with Nearby Thunderstorms 86 30 73 22.8 65 65 S 9 15 30.04 1017 10 16.0934 0 0
1:52 pm 13:52 Cloudy with Nearby Thunderstorms 84 28.9 72 22.2 67 67 WNW 12 19 30.05 1018 8 12.87472 0.001 0.001
2:01 pm 14:01 Cloudy with Nearby Thunderstorms 80 26.7 73 22.8 79 79 WNW 16 26 30.06 1018 4 6.43736 0.01 0.254
2:12 pm 14:12 Cloudy with Nearby Thunderstorms 80 26.7 75 23.9 85 85 W 9 15 30.06 1018 6 9.65604 0.05 1.27
2:24 pm 14:24 Mostly Cloudy with Nearby Thunderstorms 81 27.2 74 23.3 79 79 Calm 30.04 1017 10 16.0934 0.05 1.27
2:37 pm 14:37 Mostly Cloudy 80 26.7 74 23.3 82 82 SE 3 6 30.04 1017 10 16.0934 0.05 1.27
2:52 pm 14:52 Mostly Cloudy 80 26.7 72 22.2 76 76 S 3 6 30.03 1017 10 16.0934 0.05 1.27
3:52 pm 15:52 Mostly Cloudy 80 26.7 73 22.8 79 79 S 7 11 30.01 1016 10 16.0934 0 0
4:52 pm 16:52 Mostly Cloudy 84 28.9 74 23.3 72 72 S 7 11 29.99 1016 10 16.0934 0 0
5:52 pm 17:52 Mostly Cloudy 85 29.4 75 23.9 72 72 SSE 6 9 29.99 1016 10 16.0934 0 0
6:52 pm 18:52 Partly Cloudy 83 28.3 73 22.8 72 72 S 7 11 29.98 1015 10 16.0934 0 0
7:52 pm 19:52 Partly Cloudy 82 27.8 73 22.8 74 74 SSW 8 13 29.98 1015 10 16.0934 0 0
8:52 pm 20:52 Partly Cloudy 80 26.7 73 22.8 79 79 SSW 12 19 30 1016 10 16.0934 0 0
9:52 pm 21:52 Partly Cloudy 78 25.6 72 22.2 82 82 SSW 8 13 30.02 1017 10 16.0934 0 0
10:52 pm 22:52 Mostly Cloudy 77 25 72 22.2 85 85 SSW 7 11 30.01 1016 10 16.0934 0 0
11:52 pm 23:52 Mostly Cloudy 77 25 72 22.2 85 85 S 8 13 30 1016 10 16.0934 0 0

Powered by AerisWeather